Showing default

COSMOS 1563, 15002

Orbit data source: Space-Track

COSMOS 1563, 15002 is a payload satellite owned by GUKOS (CIS) in LEO that was launched on Mon, 28 May 1984 UTC via a KOSMOS 11K65M launch vehicle from the Plesetsk Missile And Space Complex (PKMTR). Payload-class satellites include a variety of spacecraft equipped with specific instruments for various scientific and technological missions. These include communications satellites like Starlink; space stations such as the ISS; scientific satellites like the Hubble; Earth observation satellites from companies like Planet Labs, Umbra, and HawkEye 360; GPS; miniature CubeSats for education and research; and military/defense satellites.

Loading next visibility...
Identifier
15002, 1984-052E
Orbit
LEO
Country
Flag of CISCIS
Related business
Manufacturer
NPO PM
Mission
Defense Communications
Bus & Motor
STRELA-1 11F625, Unknown motor
Mass
60 kg wet, 60 kg dry
Launch date (UTC)
1984-05-28 (41 years ago)
Launch vehicle
KOSMOS 11K65M
Launch site
Plesetsk Missile And Space Complex (PKMTR)
Object type
Payload
Rocket body
Debris
Shape & HBR
Sphere, 0.4 m
Radar Cross Section
0.588 m², Medium (>0.1 m² and < 1m²)

Expand to show TLE details & history
Last TLE update: 12 hours ago

TLE from 12 hours ago
0 COSMOS 1563
1 15002U 84052E   25258.46090036  .00000004  00000-0  12779-3 0  9990
2 15002  74.0087 251.0660 0023667  84.2894  71.7190 12.51834375619825
Epoch: 2025-09-15T11:03Z
TLE epoch observation values (Epoch: 2025-09-15T11:03:41.791Z)
Latitude
22.78463°
Longitude
-96.40306°
Altitude
1,453.323 km
Speed
7.14 km/s
True Right ascension
04h 16m 44s
True Declination
22° 40' 23"
Sunlit
Object was in daylight at epoch
Visualization orbit readout
Latitude
Unknown
Longitude
Unknown
Altitude
Unknown
Speed
Unknown
Apparent Right ascension
Unknown
Apparent Declination
Unknown
Sunlit
N/A
Visualization observer readout
Local Sidereal Time
15:46:23
Azimuth
Unknown
Elevation
Unknown
Doppler factor
Unknown
Orbital elements
Apogee altitude
1,473.204 km
Perigee altitude
1,436.128 km
Semi-major axis
7,832.803 km
Eccentricity
0.00237
Inclination
74.0087°
RAAN
251.066°
Arg. of periapsis
84.2894°
True anomaly
71.97675°
Mean anomaly
71.719°
Eccentric anomaly
71.84785°
Mean motion
3.13089 °/min
Orbital period
114.98 mins
BSTAR
0.00012779
Loading maneuver chart data...
Computing Atmospheric mass density...
Loading historical data...
Loading historical data...
Loading historical data...
Loading historical data...
Loading historical data...
Loading historical data...
Loading historical data...

Documentation

Showing up to 5 results
|